When you browse on this site, cookies collect data to enhance your experience and personalize the content and advertising you see.
Visit our Privacy Policy to learn more. By continuing to use the site, you agree to this use of cookies and data.
  • In Czech Republic
  • List of Countries
  • For 7 days
  • Water Temperature
  • Weather Map
  • Weather Widgets
  • user-avatar
    Login

    Hourly Weather Kamynino

    Today, 30 March, Monday

    Time Temperature Precipitation Wind Pressure Humidity
    00:00 +8°C° 0 mm 2 mps 738 mmHg 64%
    01:00 +8°C° 0 mm 2 mps 737 mmHg 66%
    02:00 +8°C° 0 mm 2 mps 738 mmHg 65%
    03:00 +7°C° 0 mm 2 mps 737 mmHg 66%
    04:00 +7°C° 0 mm 2 mps 737 mmHg 66%
    05:00 +7°C° 0 mm 2 mps 737 mmHg 67%
    06:00 +8°C° 0 mm 2 mps 737 mmHg 66%
    07:00 +9°C° 0 mm 1 mps 737 mmHg 64%
    08:00 +10°C° 0 mm 1 mps 737 mmHg 63%
    09:00 +9°C° 0 mm 2 mps 737 mmHg 63%
    10:00 +10°C° 0 mm 3 mps 737 mmHg 62%
    11:00 +11°C° 0 mm 4 mps 737 mmHg 62%
    12:00 +11°C° 0 mm 4 mps 737 mmHg 63%
    13:00 +10°C° 0 mm 5 mps 737 mmHg 63%
    14:00 +10°C° 0 mm 5 mps 737 mmHg 64%
    15:00 +8°C° 0 mm 6 mps 737 mmHg 67%
    16:00 +7°C° 0 mm 6 mps 738 mmHg 70%
    17:00 +4°C° 0 mm 7 mps 738 mmHg 73%
    18:00 +3°C° 0 mm 6 mps 738 mmHg 77%
    19:00 +2°C° 0 mm 6 mps 738 mmHg 81%
    20:00 -1°C° 0 mm 6 mps 739 mmHg 86%
    21:00 -1°C° 0.3 mm 6 mps 739 mmHg 88%
    22:00 -1°C° 0.3 mm 5 mps 739 mmHg 90%
    23:00 -2°C° 0.3 mm 5 mps 739 mmHg 93%

    Tomorrow, 31 March, Tuesday

    Time Temperature Precipitation Wind Pressure Humidity
    00:00 -3°C° 0.1 mm 6 mps 739 mmHg 91%
    01:00 -4°C° 0.1 mm 6 mps 740 mmHg 89%
    02:00 -4°C° 0.1 mm 6 mps 740 mmHg 87%
    03:00 -5°C° 0.1 mm 6 mps 740 mmHg 88%
    04:00 -5°C° 0.1 mm 6 mps 740 mmHg 89%
    05:00 -6°C° 0.1 mm 5 mps 740 mmHg 90%
    06:00 -5°C° 0.3 mm 5 mps 741 mmHg 89%
    07:00 -5°C° 0.3 mm 6 mps 741 mmHg 88%
    08:00 -5°C° 0.3 mm 6 mps 741 mmHg 87%
    09:00 -5°C° 0.2 mm 6 mps 742 mmHg 84%
    10:00 -5°C° 0.2 mm 6 mps 742 mmHg 80%
    11:00 -4°C° 0.2 mm 6 mps 743 mmHg 77%
    12:00 -4°C° 0.1 mm 6 mps 743 mmHg 75%
    13:00 -4°C° 0.1 mm 6 mps 743 mmHg 73%
    14:00 -3°C° 0.1 mm 6 mps 744 mmHg 72%
    15:00 -4°C° 0.1 mm 6 mps 744 mmHg 71%
    16:00 -4°C° 0.1 mm 6 mps 744 mmHg 70%
    17:00 -4°C° 0.1 mm 6 mps 744 mmHg 70%
    18:00 -5°C° 0 mm 5 mps 745 mmHg 71%
    19:00 -5°C° 0 mm 5 mps 745 mmHg 73%
    20:00 -5°C° 0 mm 4 mps 746 mmHg 75%
    21:00 -5°C° 0 mm 4 mps 746 mmHg 73%
    22:00 -5°C° 0 mm 4 mps 746 mmHg 71%
    23:00 -5°C° 0 mm 3 mps 746 mmHg 69%

    Day after tomorrow, 1 April, Wednesday

    Time Temperature Precipitation Wind Pressure Humidity
    00:00 -5°C° 0 mm 4 mps 746 mmHg 69%
    01:00 -5°C° 0 mm 4 mps 746 mmHg 68%
    02:00 -5°C° 0 mm 4 mps 746 mmHg 67%
    03:00 -7°C° 0 mm 4 mps 746 mmHg 68%
    04:00 -7°C° 0 mm 4 mps 746 mmHg 68%
    05:00 -6°C° 0 mm 3 mps 746 mmHg 68%
    06:00 -5°C° 0 mm 4 mps 746 mmHg 61%
    07:00 -4°C° 0 mm 4 mps 746 mmHg 54%
    08:00 -4°C° 0 mm 5 mps 746 mmHg 47%
    09:00 -4°C° 0 mm 5 mps 745 mmHg 44%
    10:00 -3°C° 0 mm 6 mps 745 mmHg 41%
    11:00 -2°C° 0 mm 6 mps 744 mmHg 39%
    12:00 -1°C° 0 mm 6 mps 744 mmHg 39%
    13:00 -1°C° 0 mm 7 mps 744 mmHg 39%
    14:00 0°C° 0 mm 7 mps 743 mmHg 40%
    15:00 -1°C° 0 mm 7 mps 742 mmHg 45%
    16:00 -1°C° 0 mm 6 mps 742 mmHg 51%
    17:00 0°C° 0 mm 5 mps 741 mmHg 57%
    18:00 0°C° 0 mm 5 mps 741 mmHg 60%
    19:00 -1°C° 0 mm 5 mps 741 mmHg 63%
    20:00 -1°C° 0 mm 5 mps 741 mmHg 66%
    21:00 -2°C° 0 mm 6 mps 740 mmHg 67%
    22:00 -2°C° 0 mm 6 mps 740 mmHg 69%
    23:00 -2°C° 0 mm 6 mps 740 mmHg 70%

    2 April, Thursday

    Time Temperature Precipitation Wind Pressure Humidity
    00:00 -2°C° 0 mm 6 mps 740 mmHg 71%
    01:00 -3°C° 0 mm 6 mps 739 mmHg 72%
    02:00 -3°C° 0 mm 6 mps 739 mmHg 73%
    03:00 -3°C° 0 mm 6 mps 739 mmHg 76%
    04:00 -3°C° 0 mm 6 mps 739 mmHg 79%
    05:00 -4°C° 0 mm 6 mps 739 mmHg 82%
    06:00 -3°C° 0 mm 6 mps 739 mmHg 82%
    07:00 -2°C° 0 mm 6 mps 739 mmHg 82%
    08:00 -2°C° 0 mm 6 mps 739 mmHg 82%
    09:00 -1°C° 0 mm 6 mps 739 mmHg 80%
    10:00 -1°C° 0 mm 6 mps 739 mmHg 78%
    11:00 +1°C° 0 mm 6 mps 739 mmHg 75%
    12:00 +1°C° 0 mm 6 mps 739 mmHg 80%
    13:00 0°C° 0 mm 7 mps 739 mmHg 84%
    14:00 0°C° 0 mm 7 mps 739 mmHg 88%
    15:00 +1°C° 0 mm 6 mps 739 mmHg 84%
    16:00 +2°C° 0 mm 6 mps 739 mmHg 81%
    17:00 +2°C° 0 mm 5 mps 739 mmHg 77%
    18:00 +1°C° 0 mm 5 mps 739 mmHg 80%
    19:00 +1°C° 0 mm 5 mps 739 mmHg 83%
    20:00 +1°C° 0 mm 4 mps 740 mmHg 87%
    21:00 0°C° 0 mm 4 mps 740 mmHg 87%
    22:00 0°C° 0 mm 5 mps 740 mmHg 88%
    23:00 0°C° 0 mm 5 mps 740 mmHg 89%

    3 April, Friday

    Time Temperature Precipitation Wind Pressure Humidity
    00:00 0°C° 0 mm 5 mps 740 mmHg 89%
    01:00 0°C° 0 mm 5 mps 740 mmHg 90%
    02:00 0°C° 0 mm 5 mps 740 mmHg 90%
    03:00 0°C° 0 mm 4 mps 740 mmHg 91%
    04:00 -1°C° 0 mm 4 mps 740 mmHg 92%
    05:00 -1°C° 0 mm 4 mps 740 mmHg 92%
    06:00 0°C° 0 mm 5 mps 740 mmHg 86%
    07:00 +1°C° 0 mm 5 mps 741 mmHg 79%
    08:00 +2°C° 0 mm 6 mps 741 mmHg 72%
    09:00 +3°C° 0 mm 7 mps 740 mmHg 68%
    10:00 +4°C° 0 mm 7 mps 740 mmHg 64%
    11:00 +5°C° 0 mm 8 mps 740 mmHg 61%
    12:00 +5°C° 0 mm 8 mps 740 mmHg 60%
    13:00 +6°C° 0 mm 8 mps 739 mmHg 58%
    14:00 +6°C° 0 mm 8 mps 739 mmHg 57%
    15:00 +6°C° 0 mm 7 mps 739 mmHg 59%
    16:00 +5°C° 0 mm 7 mps 739 mmHg 61%
    17:00 +5°C° 0 mm 6 mps 738 mmHg 62%
    18:00 +5°C° 0 mm 6 mps 738 mmHg 64%
    19:00 +4°C° 0 mm 6 mps 739 mmHg 66%
    20:00 +4°C° 0 mm 6 mps 739 mmHg 67%
    21:00 +4°C° 0 mm 7 mps 739 mmHg 67%
    22:00 +4°C° 0 mm 7 mps 738 mmHg 66%
    23:00 +4°C° 0 mm 7 mps 738 mmHg 65%

    4 April, Saturday

    Time Temperature Precipitation Wind Pressure Humidity
    00:00 +3°C° 0.1 mm 6 mps 739 mmHg 71%
    01:00 +2°C° 0.1 mm 6 mps 739 mmHg 77%
    02:00 +2°C° 0.1 mm 5 mps 739 mmHg 84%
    03:00 +1°C° 0 mm 5 mps 739 mmHg 84%
    04:00 +1°C° 0 mm 5 mps 740 mmHg 84%
    05:00 0°C° 0 mm 4 mps 740 mmHg 84%
    06:00 +1°C° 0 mm 5 mps 741 mmHg 78%
    07:00 +1°C° 0 mm 5 mps 741 mmHg 71%
    08:00 +2°C° 0 mm 6 mps 742 mmHg 65%
    09:00 +2°C° 0 mm 6 mps 742 mmHg 61%
    10:00 +2°C° 0 mm 6 mps 743 mmHg 57%
    11:00 +3°C° 0 mm 7 mps 743 mmHg 54%
    12:00 +3°C° 0 mm 6 mps 744 mmHg 54%
    13:00 +3°C° 0 mm 6 mps 744 mmHg 55%
    14:00 +3°C° 0 mm 6 mps 745 mmHg 55%
    15:00 +2°C° 0 mm 6 mps 745 mmHg 57%
    16:00 +2°C° 0 mm 6 mps 746 mmHg 58%
    17:00 +2°C° 0 mm 6 mps 746 mmHg 60%
    18:00 +1°C° 0 mm 5 mps 747 mmHg 61%
    19:00 0°C° 0 mm 4 mps 748 mmHg 62%
    20:00 0°C° 0 mm 3 mps 749 mmHg 63%
    21:00 0°C° 0 mm 3 mps 749 mmHg 64%
    22:00 0°C° 0 mm 3 mps 750 mmHg 65%
    23:00 -1°C° 0 mm 3 mps 750 mmHg 66%
    Show more